Overview Statistics Trail Chart Weather Telemetry Raw packets
 

This is the latest recevied weather packets stored in our database for station/object KC9TVS-13. If no packets are shown the sender has not sent any weather packets the latest 10 day(s).

<< 108 109 110 111 112 113 114 >>
Time Temp. Humidity Pressure Rain* Wind** Luminosity Snow
1787756371 30° C 81% 1016.8 hPa 0 mm - 657 W/m² -
1787756068 30° C 79% 1016.8 hPa 0 mm - 631 W/m² -
1787755769 30.56° C 71% 1016.8 hPa 0 mm - 622 W/m² -
1787755469 30.56° C 71% 1016.8 hPa 0 mm - 615 W/m² -
1787755168 30° C 69% 1016.8 hPa 0 mm - 603 W/m² -
1787754869 30° C 74% 1016.9 hPa 0 mm - 592 W/m² -
1787754568 29.44° C 71% 1016.9 hPa 0 mm - 578 W/m² -
1787754269 30° C 77% 1016.8 hPa 0 mm - 561 W/m² -
1787753970 30° C 76% 1016.8 hPa 0 mm - 543 W/m² -
1787753669 29.44° C 74% 1016.8 hPa 0 mm - 533 W/m² -
1787753369 28.89° C 74% 1016.8 hPa 0 mm - 543 W/m² -
1787753066 28.89° C 76% 1016.9 hPa 0 mm - 515 W/m² -
1787752766 28.89° C 79% 1016.7 hPa 0 mm - 482 W/m² -
1787752466 28.33° C 79% 1016.6 hPa 0 mm - 462 W/m² -
1787752167 28.33° C 79% 1016.6 hPa 0 mm - 348 W/m² -
1787751867 28.33° C 83% 1016.5 hPa 0 mm - 427 W/m² -
1787751567 28.33° C 81% 1016.5 hPa 0 mm - 345 W/m² -
1787751265 27.78° C 81% 1016.6 hPa 0 mm - 392 W/m² -
1787750967 27.78° C 84% 1016.6 hPa 0 mm - 374 W/m² -
1787750666 27.22° C 84% 1016.5 hPa 0 mm - 315 W/m² -
1787750368 26.67° C 87% 1016.5 hPa 0 mm - 251 W/m² -
1787750066 26.67° C 88% 1016.4 hPa 0 mm - 178 W/m² -
1787749768 25.56° C 92% 1016.5 hPa 0 mm - 283 W/m² -
1787749467 25.56° C 88% 1016.6 hPa 0 mm - 54 W/m² -
1787749167 25.56° C 89% 1016.5 hPa 0 mm - 44 W/m² -

* Rain latest hour (hover to see other rain measurements)
** Current wind speed in m/s (hover to see current wind gust speed)